Location: Unspecified
(0.0000°N, 0.0000°E)
Time: 17:41:46
(UTC+00:00)

Tiros 1 despin weight - All Passes

Search period start: 18 June 2019 00:00
Search period end: 28 June 2019 00:00
Orbit: 595 x 642 km, 48.2° (Epoch: 18 June)

Date Brightness Start Highest point End Pass type
(mag) Time Alt. Az. Time Alt. Az. Time Alt. Az.
18 Jun - 08:56:50 10° NNW 09:01:03 39° NE 09:05:20 10° ESE daylight
18 Jun - 10:39:45 10° W 10:42:29 16° SW 10:45:14 10° SSW daylight
18 Jun - 21:05:03 10° SSW 21:09:36 67° SE 21:14:02 10° NE night (unlit)
19 Jun - 09:13:06 10° NW 09:17:36 73° SW 09:22:12 10° SSE daylight
19 Jun - 19:42:15 10° SSE 19:44:42 14° SE 19:47:07 10° E night (unlit)
19 Jun - 21:21:50 10° WSW 21:26:09 42° NW 21:30:24 10° NNE night (unlit)
20 Jun - 07:49:18 10° N 07:52:48 22° NE 07:56:21 10° ESE daylight
20 Jun - 09:30:23 10° WNW 09:34:11 26° SW 09:38:03 10° S daylight
20 Jun - 19:57:06 10° SSW 20:01:21 36° SE 20:05:30 10° ENE visible
20 Jun - 21:39:55 10° W 21:42:44 16° NW 21:45:31 10° NNW night (unlit)
21 Jun - 08:04:57 10° NNW 08:09:22 61° NE 08:13:53 10° SE daylight
21 Jun - 20:13:19 10° SW 20:17:55 79° NW 20:22:25 10° NE visible
22 Jun - 06:42:34 10° NNE 06:44:32 13° NE 06:46:32 10° ENE daylight
22 Jun - 08:21:37 10° NW 08:25:56 46° SW 08:30:20 10° SSE daylight
22 Jun - 18:49:33 10° S 18:53:04 21° SE 18:56:32 10° E visible
22 Jun - 20:30:33 10° WSW 20:34:28 28° NW 20:38:20 10° N visible
23 Jun - 06:57:07 10° NNW 07:01:09 33° NE 07:05:14 10° ESE daylight
23 Jun - 08:39:31 10° W 08:42:33 18° SW 08:45:37 10° S daylight
23 Jun - 19:05:08 10° SSW 19:09:41 57° SE 19:14:08 10° NE visible
23 Jun - 20:50:08 10° WNW 20:51:05 11° NW 20:52:02 10° NW visible
24 Jun - 07:13:14 10° NW 07:17:42 85° SW 07:22:15 10° SE daylight
24 Jun - 17:42:48 10° SSE 17:44:46 12° SE 17:46:41 10° ESE daylight
24 Jun - 19:21:46 10° SW 19:26:14 50° NW 19:30:38 10° NNE visible
25 Jun - 05:49:44 10° N 05:52:55 19° NE 05:56:06 10° E daylight
25 Jun - 07:30:21 10° WNW 07:34:17 30° SW 07:38:16 10° S daylight
25 Jun - 17:57:16 10° SSW 18:01:25 32° SE 18:05:30 10° ENE daylight
25 Jun - 19:39:34 10° W 19:42:49 19° NW 19:46:01 10° N visible
26 Jun - 06:05:09 10° NNW 06:09:28 51° NE 06:13:52 10° SE daylight
26 Jun - 07:49:26 10° WSW 07:50:56 11° SW 07:52:27 10° SSW daylight
26 Jun - 18:13:20 10° SW 18:18:00 89° ESE 18:22:34 10° NE daylight
27 Jun - 04:43:39 10° NE 04:44:38 11° NE 04:45:36 10° ENE visible
27 Jun - 06:21:42 10° NW 06:26:01 54° SW 06:30:26 10° SSE daylight
27 Jun - 16:49:51 10° S 16:53:08 19° SE 16:56:22 10° E daylight
27 Jun - 18:30:24 10° WSW 18:34:33 32° NW 18:38:39 10° NNE visible
